SCP
0 0 0 0 0 0 0 0 0 0 0 0 0 0 0 0 0 0 0 0 0 0 0 0 0 0 0 0 0 0 0 0 0 0 0 0 0 0 0 0 0 0 0
0 0 0 0 0 0 0 0 0 0 0 0 0 0 0 0 0 0 0 0 0 0 0 0 0 0 0 0 0 0 0 0 0 0 0 0 0 0 0 0 0 0 0
0 0 0 0 0 0 0 0 0 0 0 0 0 0 0 0 0 0 0 0 0 0 0 0 0 0 0 0 0 0 0 0 0 0 0 0 0 0 0 0 0 0 0
0 0 0 0 0 0 0 0 0 0 0 0 0 0 0 0 0 0 0 0 0 0 0 0 0 0 0 0 0 0 0 0 0 0 0 0 0 0 0 0 0 0 0
0 0 0 0 0 0 0 0 0 0 0 0 0 0 0 0 0 0 0 0 0 0 0 0 0 0 0 0 0 0 0 0 0 0 0 0 0 0 0 0 0 0 0
0 0 0 0 0 0 0 0 0 0 0 0 0 0 0 0 0 0 0 0 0 0 0 0 0 0 0 0 0 0 0 0 0 0 0 0 0 0 0 0 0 0 0
0 0 0 0 0 0 0 0 0 0 0 0 0 0 0 0 0 0 0 0 0 0 0 0 0 0 0 0 0 0 0 0 0 0 0 0 0 0 0 0 0 0 0
0 0 0 0 0 0 0 0 0 0 0 0 0 0 0 0 0 0 0 0 0 0 0 0 0 0 0 0 0 0 0 0 0 0 0 0 0 0 0 0 0 0 0
0 0 0 0 0 0 0 0 0 0 0 0 0 0 0 0 0 0 0 0 0 0 0 0 0 0 0 0 0 0 0 0 0 0 0 0 0 0 0 0 0 0 0
0 0 0 0 0 0 0 0 0 0 0 0 0 0 0 0 0 0 0 0 0 0 0 0 0 0 0 0 0 0 0 0 0 0 0 0 0 0 0 0 0 0 0
0 0 0 0 0 0 0 0 0 0 0 0 0 0 0 0 0 0 0 0 0 0 0 0 0 0 0 0 0 0 0 0 0 0 0 0 0 0 0 0 0 0 0
0 0 0 0 0 0 0 0 0 0 0 0 0 0 0 0 0 0 0 0 0 0 0 0 0 0 0 0 0 0 0 0 0 0 0 0 0 0 0 0 0 0 0
0 0 0 0 0 0 0 0 0 0 0 0 0 0 0 0 0 0 0 0 0 0 0 0 0 0 0 0 0 0 0 0 0 0 0 0 0 0 0 0 0 0 0
0 0 0 0 0 0 0 0 0 0 0 0 0 0 0 0 0 0 0 0 0 0 0 0 0 0 0 0 0 0 0 0 0 0 0 0 0 0 0 0 0 0 0
0 0 0 0 0 0 0 0 0 0 0 0 0 0 0 0 0 0 0 0 0 0 0 0 0 0 0 0 0 0 0 0 0 0 0 0 0 0 0 0 0 0 0
0 0 0 0 0 0 0 0 0 0 0 0 0 0 0 0 0 0 0 0 0 0 0 0 0 0 0 0 0 0 0 0 0 0 0 0 0 0 0 0 0 0 0
0 0 0 0 0 0 0 0 0 0 0 0 0 0 0 0 0 0 0 0 0 0 0 0 0 0 0 0 0 0 0 0 0 0 0 0 0 0 0 0 0 0 0
0 0 0 0 0 0 0 0 0 0 0 0 0 0 0 0 0 0 0 0 0 0 0 0 0 0 0 0 0 0 0 0 0 0 0 0 0 0 0 0 0 0 0
0 0 0 0 0 0 0 0 0 0 0 0 0 0 0 0 0 0 0 0 0 0 0 0 0 0 0 0 0 0 0 0 0 0 0 0 0 0 0 0 0 0 0
0 0 0 0 0 0 0 0 0 0 0 0 0 0 0 0 0 0 0 0 0 0 0 0 0 0 0 0 0 0 0 0 0 0 0 0 0 0 0 0 0 0 0
0 0 0 0 0 0 0 0 0 0 0 0 0 0 0 0 0 0 0 0 0 0 0 0 0 0 0 0 0 0 0 0 0 0 0 0 0 0 0 0 0 0 0
0 0 0 0 0 0 0 0 0 0 0 0 0 0 0 0 0 0 0 0 0 0 0 0 0 0 0 0 0 0 0 0 0 0 0 0 0 0 0 0 0 0 0
0 0 0 0 0 0 0 0 0 0 0 0 0 0 0 0 0 0 0 0 0 0 0 0 0 0 0 0 0 0 0 0 0 0 0 0 0 0 0 0 0 0 0
0 0 0 0 0 0 0 0 0 0 0 0 0 0 0 0 0 0 0 0 0 0 0 0 0 0 0 0 0 0 0 0 0 0 0 0 0 0 0 0 -0 -0 0
0 0 0 0 0 0 0 0 0 0 0 0 0 0 0 0 0 0 0 0 0 0 0 0 0 0 0 0 0 0 0 0 0 0 0 0 0 0 0 -0 -0 -0 0
0 0 0 0 0 0 0 0 0 0 0 0 0 0 0 0 0 0 0 0 0 0 0 0 0 0 0 0 0 0 0 0 0 0 0 0 0 0 -0 -0 -0 -0 -0
Wind_Speed_500mb
27 30 34 37 41 46 48 49 47 44 43 45 47 49 52 54 57 58 56 54 53 52 51 49 47 42 38 36 35 33 30 28 28 25 26 27 30 34 39 44 50 56 59
26 29 31 34 38 42 44 45 45 43 42 42 44 47 49 51 53 55 54 53 52 52 49 47 44 39 37 34 32 30 27 26 25 23 25 27 32 38 44 49 54 57 61
22 26 30 32 35 36 37 39 40 40 40 40 43 44 46 49 50 51 49 48 47 46 44 42 39 38 37 34 31 28 26 25 23 23 25 29 37 42 47 53 55 59 61
19 21 24 27 28 29 32 34 35 36 38 39 40 41 43 45 47 48 49 47 45 43 40 38 36 36 34 33 29 26 24 23 23 24 28 33 39 46 51 56 59 64 72
23 20 20 24 25 27 28 30 31 32 34 37 38 39 41 43 45 47 47 44 43 42 41 39 37 35 33 30 26 23 23 23 23 26 30 34 40 46 52 60 70 79 84
24 23 22 21 23 24 26 26 28 31 34 37 37 37 41 42 40 40 40 42 43 44 44 42 38 35 33 29 24 24 27 23 24 27 29 34 39 47 56 64 75 83 89
22 22 20 20 20 21 22 23 25 29 33 37 35 36 38 38 38 38 39 39 40 40 39 37 37 33 27 20 22 25 27 26 26 26 29 35 44 53 64 70 73 77 83
21 21 20 20 19 19 19 20 23 27 31 34 35 35 35 35 38 41 41 40 40 38 35 33 30 27 21 22 20 18 20 23 24 29 35 41 49 57 64 69 73 79 82
20 20 20 18 16 15 16 18 22 26 31 33 34 38 40 42 42 41 42 43 42 41 37 32 27 23 25 24 20 19 21 23 28 34 42 49 51 55 61 66 66 71 81
22 23 20 20 16 14 15 18 22 25 30 35 37 39 43 45 43 39 40 42 43 42 38 30 26 26 29 22 16 17 19 23 29 37 41 44 48 51 55 58 60 61 63
18 21 20 20 18 17 17 19 23 30 35 40 46 50 49 43 36 37 37 37 38 40 34 30 23 20 23 11 11 16 22 31 37 40 43 46 47 47 48 50 53 55 58
15 18 19 19 19 19 20 25 28 35 45 53 57 57 47 36 31 40 38 33 36 35 38 34 28 23 16 16 20 26 30 35 36 38 40 41 41 43 44 46 48 50 53
10 16 19 21 21 21 23 29 37 43 51 57 59 59 49 37 37 39 40 38 36 33 33 34 29 14 14 21 24 28 30 31 33 35 36 38 42 45 47 47 47 53 54
7 14 20 21 24 25 28 30 37 48 56 61 62 58 54 53 47 43 38 41 45 42 36 22 16 13 15 18 24 25 27 28 31 34 35 37 39 42 49 57 62 64 70
9 13 17 20 24 28 29 31 34 41 45 53 56 51 49 45 35 26 21 27 28 26 19 15 11 10 13 16 18 21 23 26 29 32 36 40 45 49 52 57 62 70 76
10 13 16 21 26 31 35 39 31 35 41 45 45 40 43 35 38 34 31 28 24 21 16 11 6 8 10 12 15 18 21 24 27 33 40 45 50 55 58 59 66 74 84
9 15 20 25 32 39 43 47 52 38 37 41 41 45 39 39 36 31 24 24 18 13 6 3 6 5 6 9 13 16 20 26 32 37 41 47 52 57 63 68 73 80 89
12 17 23 31 38 44 49 52 57 74 76 65 51 51 41 36 31 26 20 16 11 9 8 5 2 2 5 9 12 17 22 27 32 38 43 48 54 60 65 71 78 86 92
17 22 29 38 48 54 61 70 79 81 80 79 72 63 46 31 22 19 13 12 10 9 7 3 2 3 6 10 14 18 23 29 35 40 44 48 53 61 67 75 80 84 95
22 28 34 43 52 57 63 69 74 74 73 65 51 38 31 21 18 16 15 13 11 8 6 4 3 4 6 10 14 19 25 31 36 40 44 49 56 64 71 76 81 93 101
27 33 39 48 53 58 63 63 66 66 60 50 40 36 27 22 18 17 14 12 10 8 6 4 3 5 8 13 17 22 27 32 37 42 47 53 61 67 70 76 86 95 107
29 37 46 49 53 56 58 58 60 56 50 44 38 28 22 21 18 16 13 11 9 6 3 3 6 8 12 16 20 24 29 34 39 45 52 59 65 67 74 83 91 101 110
31 40 45 49 50 53 58 57 53 47 40 33 27 26 24 21 18 15 13 9 6 3 3 6 9 12 16 20 24 29 33 37 42 49 58 65 67 70 78 88 96 105 113
31 38 44 49 53 56 54 52 48 42 36 32 28 25 22 20 17 13 10 6 3 1 5 8 11 13 16 21 26 31 35 40 45 51 59 65 68 72 81 92 98 106 113
34 42 47 51 53 52 51 48 43 38 33 27 25 23 21 18 14 10 6 2 3 7 10 14 17 20 22 25 28 31 35 40 46 53 58 61 68 77 86 91 100 110 121
41 44 47 49 48 46 43 41 36 32 28 26 24 21 18 15 11 7 4 4 7 10 14 18 21 24 26 27 30 32 36 41 47 50 59 67 75 84 85 94 102 113 115
Wind_Direction_500mb
226 225 228 230 233 234 236 238 239 240 238 234 232 231 228 226 224 223 223 224 225 226 228 233 237 242 240 237 234 232 231 232 234 229 237 243 249 259 270 280 287 290 294
227 227 228 226 227 231 233 235 236 237 236 234 232 230 227 225 224 224 222 222 223 226 228 231 235 234 233 229 227 228 231 236 240 242 245 251 261 270 280 287 290 296 300
229 224 223 223 223 224 226 229 231 233 233 230 226 226 227 224 223 222 219 222 225 228 232 233 233 230 225 225 227 231 237 244 250 255 261 267 276 285 290 293 299 301 304
227 223 221 220 219 219 221 224 227 228 228 225 223 223 222 221 219 218 217 215 220 223 224 224 222 220 221 223 228 235 243 253 263 272 279 284 292 296 300 303 304 306 311
220 214 211 208 208 211 214 218 222 224 223 219 217 217 216 215 215 214 213 212 215 215 213 213 213 215 219 224 231 241 254 265 275 283 290 296 299 303 307 314 314 315 317
215 202 197 197 201 207 210 212 214 214 214 212 211 213 210 208 207 207 211 207 206 206 204 201 205 212 221 230 237 248 258 268 286 293 298 303 307 312 314 316 318 320 321
192 187 185 191 197 202 205 208 209 210 207 204 205 207 204 202 201 200 199 202 202 200 202 203 203 207 216 222 236 254 273 290 295 305 310 313 315 318 317 316 317 316 314
175 176 178 184 191 197 200 201 203 201 199 198 197 195 194 194 194 196 196 195 194 194 195 198 202 204 213 234 249 269 289 297 309 314 316 318 317 317 315 317 317 315 315
166 169 170 174 183 189 192 191 189 190 188 188 188 185 182 186 194 196 193 188 186 184 186 190 196 207 229 244 255 275 287 303 313 318 319 318 318 316 313 316 316 318 320
164 159 162 164 168 176 182 182 178 176 180 177 175 176 180 185 193 190 193 192 187 186 182 186 197 215 237 247 262 280 298 308 312 315 316 316 316 317 318 319 321 323 325
157 164 166 165 162 166 172 171 172 171 171 167 165 168 178 192 179 179 185 192 195 182 179 177 182 203 244 257 281 296 308 314 317 319 321 323 324 324 325 326 326 326 324
156 165 171 165 162 163 168 168 169 172 168 165 167 167 174 173 170 171 173 187 184 192 183 184 184 215 262 294 306 315 317 319 322 325 327 327 328 330 330 330 327 323 318
163 169 170 165 161 161 169 172 166 170 170 166 166 164 163 159 154 167 176 181 183 187 183 193 213 234 271 300 311 317 322 326 327 329 333 337 339 337 332 329 326 319 315
202 182 169 166 163 163 165 170 173 173 173 170 170 170 164 162 165 171 181 179 184 185 197 210 217 245 283 303 312 322 326 331 335 340 342 342 340 336 334 331 330 329 326
204 190 174 168 168 166 165 168 174 176 183 178 178 179 178 169 166 170 171 173 179 179 188 202 232 274 297 305 317 328 335 341 344 344 343 341 339 336 336 334 333 333 331
218 187 177 170 161 160 159 151 159 175 178 179 177 179 161 167 164 160 157 157 168 178 193 214 246 273 294 316 330 339 344 346 346 345 344 341 338 336 337 338 336 333 330
218 195 179 168 163 161 158 155 146 147 167 171 161 158 160 155 161 169 178 173 180 193 179 205 243 276 313 336 343 348 350 349 347 345 342 339 338 338 338 338 335 333 332
202 192 180 170 167 161 155 150 141 132 127 126 132 137 152 169 172 163 167 172 161 137 180 197 220 339 352 353 356 356 351 346 344 342 341 341 339 338 338 335 335 335 335
196 190 183 176 171 164 158 151 147 148 147 146 145 140 145 174 163 164 156 142 151 158 156 143 76 24 11 6 359 351 346 344 343 342 341 340 338 337 337 335 335 336 335
190 191 183 184 175 169 165 163 162 163 161 162 162 168 164 157 155 149 149 152 149 142 129 109 62 23 6 355 349 346 344 343 341 339 339 339 338 338 337 335 336 336 336
198 189 188 188 179 173 169 169 168 167 163 159 158 156 155 147 149 152 150 145 136 125 111 85 35 0 346 344 342 342 341 341 339 336 337 338 338 338 337 337 338 337 336
199 193 188 189 181 174 170 169 167 167 166 167 165 162 150 150 153 149 143 138 129 120 92 23 352 341 337 334 333 335 338 338 337 334 335 336 338 339 338 339 338 338 337
197 194 187 182 177 171 167 168 170 172 168 164 161 158 156 155 152 147 141 136 128 96 12 345 333 327 327 328 331 333 334 335 335 334 334 335 338 340 339 338 338 338 337
192 189 185 176 170 169 169 169 169 167 165 157 155 157 155 154 151 149 148 150 156 325 328 328 327 324 324 326 326 328 329 330 332 332 332 334 336 339 340 338 339 337 337
179 177 172 169 168 168 167 167 166 163 158 160 160 157 155 155 156 159 164 189 305 320 322 325 329 331 329 326 326 326 325 327 331 333 331 330 337 341 340 338 339 338 340
167 166 166 166 166 167 167 166 162 157 161 162 159 158 158 161 167 177 208 264 291 306 314 321 324 325 324 324 324 323 324 327 330 333 334 340 340 339 340 339 339 339 339
Wind_Speed_850mb
27 30 34 37 41 46 48 49 47 44 43 45 47 49 52 54 57 58 56 54 53 52 51 49 47 42 38 36 35 33 30 28 28 25 26 27 30 34 39 44 50 56 59
26 29 31 34 38 42 44 45 45 43 42 42 44 47 49 51 53 55 54 53 52 52 49 47 44 39 37 34 32 30 27 26 25 23 25 27 32 38 44 49 54 57 61
22 26 30 32 35 36 37 39 40 40 40 40 43 44 46 49 50 51 49 48 47 46 44 42 39 38 37 34 31 28 26 25 23 23 25 29 37 42 47 53 55 59 61
19 21 24 27 28 29 32 34 35 36 38 39 40 41 43 45 47 48 49 47 45 43 40 38 36 36 34 33 29 26 24 23 23 24 28 33 39 46 51 56 59 64 72
23 20 20 24 25 27 28 30 31 32 34 37 38 39 41 43 45 47 47 44 43 42 41 39 37 35 33 30 26 23 23 23 23 26 30 34 40 46 52 60 70 79 84
24 23 22 21 23 24 26 26 28 31 34 37 37 37 41 42 40 40 40 42 43 44 44 42 38 35 33 29 24 24 27 23 24 27 29 34 39 47 56 64 75 83 89
22 22 20 20 20 21 22 23 25 29 33 37 35 36 38 38 38 38 39 39 40 40 39 37 37 33 27 20 22 25 27 26 26 26 29 35 44 53 64 70 73 77 83
21 21 20 20 19 19 19 20 23 27 31 34 35 35 35 35 38 41 41 40 40 38 35 33 30 27 21 22 20 18 20 23 24 29 35 41 49 57 64 69 73 79 82
20 20 20 18 16 15 16 18 22 26 31 33 34 38 40 42 42 41 42 43 42 41 37 32 27 23 25 24 20 19 21 23 28 34 42 49 51 55 61 66 66 71 81
22 23 20 20 16 14 15 18 22 25 30 35 37 39 43 45 43 39 40 42 43 42 38 30 26 26 29 22 16 17 19 23 29 37 41 44 48 51 55 58 60 61 63
18 21 20 20 18 17 17 19 23 30 35 40 46 50 49 43 36 37 37 37 38 40 34 30 23 20 23 11 11 16 22 31 37 40 43 46 47 47 48 50 53 55 58
15 18 19 19 19 19 20 25 28 35 45 53 57 57 47 36 31 40 38 33 36 35 38 34 28 23 16 16 20 26 30 35 36 38 40 41 41 43 44 46 48 50 53
10 16 19 21 21 21 23 29 37 43 51 57 59 59 49 37 37 39 40 38 36 33 33 34 29 14 14 21 24 28 30 31 33 35 36 38 42 45 47 47 47 53 54
7 14 20 21 24 25 28 30 37 48 56 61 62 58 54 53 47 43 38 41 45 42 36 22 16 13 15 18 24 25 27 28 31 34 35 37 39 42 49 57 62 64 70
9 13 17 20 24 28 29 31 34 41 45 53 56 51 49 45 35 26 21 27 28 26 19 15 11 10 13 16 18 21 23 26 29 32 36 40 45 49 52 57 62 70 76
10 13 16 21 26 31 35 39 31 35 41 45 45 40 43 35 38 34 31 28 24 21 16 11 6 8 10 12 15 18 21 24 27 33 40 45 50 55 58 59 66 74 84
9 15 20 25 32 39 43 47 52 38 37 41 41 45 39 39 36 31 24 24 18 13 6 3 6 5 6 9 13 16 20 26 32 37 41 47 52 57 63 68 73 80 89
12 17 23 31 38 44 49 52 57 74 76 65 51 51 41 36 31 26 20 16 11 9 8 5 2 2 5 9 12 17 22 27 32 38 43 48 54 60 65 71 78 86 92
17 22 29 38 48 54 61 70 79 81 80 79 72 63 46 31 22 19 13 12 10 9 7 3 2 3 6 10 14 18 23 29 35 40 44 48 53 61 67 75 80 84 95
22 28 34 43 52 57 63 69 74 74 73 65 51 38 31 21 18 16 15 13 11 8 6 4 3 4 6 10 14 19 25 31 36 40 44 49 56 64 71 76 81 93 101
27 33 39 48 53 58 63 63 66 66 60 50 40 36 27 22 18 17 14 12 10 8 6 4 3 5 8 13 17 22 27 32 37 42 47 53 61 67 70 76 86 95 107
29 37 46 49 53 56 58 58 60 56 50 44 38 28 22 21 18 16 13 11 9 6 3 3 6 8 12 16 20 24 29 34 39 45 52 59 65 67 74 83 91 101 110
31 40 45 49 50 53 58 57 53 47 40 33 27 26 24 21 18 15 13 9 6 3 3 6 9 12 16 20 24 29 33 37 42 49 58 65 67 70 78 88 96 105 113
31 38 44 49 53 56 54 52 48 42 36 32 28 25 22 20 17 13 10 6 3 1 5 8 11 13 16 21 26 31 35 40 45 51 59 65 68 72 81 92 98 106 113
34 42 47 51 53 52 51 48 43 38 33 27 25 23 21 18 14 10 6 2 3 7 10 14 17 20 22 25 28 31 35 40 46 53 58 61 68 77 86 91 100 110 121
41 44 47 49 48 46 43 41 36 32 28 26 24 21 18 15 11 7 4 4 7 10 14 18 21 24 26 27 30 32 36 41 47 50 59 67 75 84 85 94 102 113 115
Wind_Direction_850mb
226 225 228 230 233 234 236 238 239 240 238 234 232 231 228 226 224 223 223 224 225 226 228 233 237 242 240 237 234 232 231 232 234 229 237 243 249 259 270 280 287 290 294
227 227 228 226 227 231 233 235 236 237 236 234 232 230 227 225 224 224 222 222 223 226 228 231 235 234 233 229 227 228 231 236 240 242 245 251 261 270 280 287 290 296 300
229 224 223 223 223 224 226 229 231 233 233 230 226 226 227 224 223 222 219 222 225 228 232 233 233 230 225 225 227 231 237 244 250 255 261 267 276 285 290 293 299 301 304
227 223 221 220 219 219 221 224 227 228 228 225 223 223 222 221 219 218 217 215 220 223 224 224 222 220 221 223 228 235 243 253 263 272 279 284 292 296 300 303 304 306 311
220 214 211 208 208 211 214 218 222 224 223 219 217 217 216 215 215 214 213 212 215 215 213 213 213 215 219 224 231 241 254 265 275 283 290 296 299 303 307 314 314 315 317
215 202 197 197 201 207 210 212 214 214 214 212 211 213 210 208 207 207 211 207 206 206 204 201 205 212 221 230 237 248 258 268 286 293 298 303 307 312 314 316 318 320 321
192 187 185 191 197 202 205 208 209 210 207 204 205 207 204 202 201 200 199 202 202 200 202 203 203 207 216 222 236 254 273 290 295 305 310 313 315 318 317 316 317 316 314
175 176 178 184 191 197 200 201 203 201 199 198 197 195 194 194 194 196 196 195 194 194 195 198 202 204 213 234 249 269 289 297 309 314 316 318 317 317 315 317 317 315 315
166 169 170 174 183 189 192 191 189 190 188 188 188 185 182 186 194 196 193 188 186 184 186 190 196 207 229 244 255 275 287 303 313 318 319 318 318 316 313 316 316 318 320
164 159 162 164 168 176 182 182 178 176 180 177 175 176 180 185 193 190 193 192 187 186 182 186 197 215 237 247 262 280 298 308 312 315 316 316 316 317 318 319 321 323 325
157 164 166 165 162 166 172 171 172 171 171 167 165 168 178 192 179 179 185 192 195 182 179 177 182 203 244 257 281 296 308 314 317 319 321 323 324 324 325 326 326 326 324
156 165 171 165 162 163 168 168 169 172 168 165 167 167 174 173 170 171 173 187 184 192 183 184 184 215 262 294 306 315 317 319 322 325 327 327 328 330 330 330 327 323 318
163 169 170 165 161 161 169 172 166 170 170 166 166 164 163 159 154 167 176 181 183 187 183 193 213 234 271 300 311 317 322 326 327 329 333 337 339 337 332 329 326 319 315
202 182 169 166 163 163 165 170 173 173 173 170 170 170 164 162 165 171 181 179 184 185 197 210 217 245 283 303 312 322 326 331 335 340 342 342 340 336 334 331 330 329 326
204 190 174 168 168 166 165 168 174 176 183 178 178 179 178 169 166 170 171 173 179 179 188 202 232 274 297 305 317 328 335 341 344 344 343 341 339 336 336 334 333 333 331
218 187 177 170 161 160 159 151 159 175 178 179 177 179 161 167 164 160 157 157 168 178 193 214 246 273 294 316 330 339 344 346 346 345 344 341 338 336 337 338 336 333 330
218 195 179 168 163 161 158 155 146 147 167 171 161 158 160 155 161 169 178 173 180 193 179 205 243 276 313 336 343 348 350 349 347 345 342 339 338 338 338 338 335 333 332
202 192 180 170 167 161 155 150 141 132 127 126 132 137 152 169 172 163 167 172 161 137 180 197 220 339 352 353 356 356 351 346 344 342 341 341 339 338 338 335 335 335 335
196 190 183 176 171 164 158 151 147 148 147 146 145 140 145 174 163 164 156 142 151 158 156 143 76 24 11 6 359 351 346 344 343 342 341 340 338 337 337 335 335 336 335
190 191 183 184 175 169 165 163 162 163 161 162 162 168 164 157 155 149 149 152 149 142 129 109 62 23 6 355 349 346 344 343 341 339 339 339 338 338 337 335 336 336 336
198 189 188 188 179 173 169 169 168 167 163 159 158 156 155 147 149 152 150 145 136 125 111 85 35 0 346 344 342 342 341 341 339 336 337 338 338 338 337 337 338 337 336
199 193 188 189 181 174 170 169 167 167 166 167 165 162 150 150 153 149 143 138 129 120 92 23 352 341 337 334 333 335 338 338 337 334 335 336 338 339 338 339 338 338 337
197 194 187 182 177 171 167 168 170 172 168 164 161 158 156 155 152 147 141 136 128 96 12 345 333 327 327 328 331 333 334 335 335 334 334 335 338 340 339 338 338 338 337
192 189 185 176 170 169 169 169 169 167 165 157 155 157 155 154 151 149 148 150 156 325 328 328 327 324 324 326 326 328 329 330 332 332 332 334 336 339 340 338 339 337 337
179 177 172 169 168 168 167 167 166 163 158 160 160 157 155 155 156 159 164 189 305 320 322 325 329 331 329 326 326 326 325 327 331 333 331 330 337 341 340 338 339 338 340
167 166 166 166 166 167 167 166 162 157 161 162 159 158 158 161 167 177 208 264 291 306 314 321 324 325 324 324 324 323 324 327 330 333 334 340 340 339 340 339 339 339 339